Regional Weather Roundup
Issued by NWS Glasgow, MT

Home | Current Version | Previous Version | Text Only | Print | Product List | Glossary On
Versions: 1 2 3 4 5 6 7 8 9 10 11 12 13 14 15 16 17 18 19 20 21 22 23 24 25 26 27 28 29 30 31 32 33 34 35 36 37 38 39 40 41 42 43 44 45 46 47 48 49 50
036
ASUS45 KGGW 121215
RWRGGW
HOURLY REGIONAL WEATHER ROUNDUP FOR NORTHEAST MONTANA
NATIONAL WEATHER SERVICE GLASGOW MONTANA
500 AM MST TUE DEC 12 2017

NOTE: "FAIR" INDICATES FEW OR NO CLOUDS BELOW 12,000 FEET WITH NO
SIGNIFICANT WEATHER AND/OR OBSTRUCTIONS TO VISISBILITY.

NORTHEAST MONTANA


CITY           SKY/WX    TMP DP  RH WIND       PRES   REMARKS
GLASGOW        CLOUDY    25  20  81 CALM      30.11F
6HR MIN TEMP:  21; 6HR MAX TEMP:  30;

PLENTYWOOD       N/A     23  22  96 E2          N/A
WOLF POINT     CLOUDY    22  18  85 W7        30.11F
JORDAN           N/A     25  18  74 W5        30.14F
WINNETT          N/A     20  18  92 CALM        N/A
SIDNEY         CLOUDY    23  21  92 S9        30.11F
GLENDIVE       CLOUDY    24  21  88 S12       30.14F
MALTA            N/A     24  21  88 W7          N/A
SCOBEY           N/A     26  15  63 CALM      30.04F

FORT PECK REPORTS


CITY           SKY/WX    TMP DP  RH WIND       PRES   REMARKS
FORT PECK        N/A     34  30  85 S9          N/A
THE PINES        N/A     34  25  69 S6          N/A

SOUTHEAST MONTANA


CITY           SKY/WX    TMP DP  RH WIND       PRES   REMARKS
BILLINGS       CLOUDY    41  18  39 SW24G30   30.23F
MILES CITY     CLOUDY    24  20  84 S10       30.18F
BAKER          CLOUDY    27  21  78 W7        30.16F
LIVINGSTON     CLOUDY    45  15  30 W20G30    30.33F

CENTRAL MONTANA


CITY           SKY/WX    TMP DP  RH WIND       PRES   REMARKS
HAVRE          CLOUDY    33  17  51 SW16      30.14F
LEWISTOWN      CLOUDY    35  21  56 CALM      30.21F
GREAT FALLS    CLOUDY    42   6  22 SW18      30.22F
CUT BANK       CLEAR     49  -5  10 W29G38    30.12F
HELENA         CLOUDY    14  11  87 CALM      30.42F
BUTTE          CLOUDY     7   1  76 SE3       30.44F
BOZEMAN        CLOUDY     8   4  83 SE5       30.42F

WESTERN MONTANA


CITY           SKY/WX    TMP DP  RH WIND       PRES   REMARKS
MISSOULA       FOG       18  14  84 N5        30.57S VSB 3/4
KALISPELL      NOT AVBL

NORTH DAKOTA


CITY           SKY/WX    TMP DP  RH WIND       PRES   REMARKS
WILLISTON      CLEAR     28  23  80 SW6       30.09F
DICKINSON      CLOUDY    25  21  85 SW9       30.09F
MINOT          CLOUDY    30  24  78 SW9       30.03F
BISMARCK       CLOUDY    20  18  92 SW5       30.13F

SOUTHERN SASKATCHEWAN


CITY           SKY/WX    TMP DP  RH WIND       PRES   REMARKS
REGINA         CLEAR     27  21  80 W10       29.96F
MOOSE JAW      PTCLDY    34  23  64 W12       29.98F
ESTEVAN        PTCLDY    27  23  86 SW10      30.01F
SWIFT CURRENT  CLEAR     34  21  60 SW13      29.98F





USA.gov is the U.S. government's official web portal to all federal, state and local government web resources and services.